Wetbulb
60.51 60.86 60.95 61.48 61.61 61.47 61.00 60.54 60.75 60.96 61.33 61.23 61.54 62.24 62.45 63.69 63.35 61.30 56.74 60.37 62.56 65.13 63.55 59.06 58.04 56.83 55.48 53.33 53.55 50.59 42.90 39.84 42.25 44.08 43.52 48.02 46.38 48.92 49.96 51.27 52.27 54.47 53.71 56.78 60.52
60.14 60.39 60.58 60.81 61.16 61.34 61.34 61.02 60.88 61.00 61.16 61.21 61.21 61.42 62.47 62.88 60.16 57.57 62.23 65.14 65.36 64.76 59.30 56.08 54.24 55.06 50.21 50.72 50.97 46.85 40.62 42.33 45.70 45.05 45.11 47.36 48.18 46.51 46.98 47.68 49.33 51.60 56.61 59.54 60.95
59.38 59.70 60.09 60.56 60.58 60.94 60.95 61.09 60.79 60.87 61.08 60.89 60.89 61.25 62.25 61.63 53.03 53.40 64.05 65.12 65.75 64.26 59.81 57.79 56.38 53.17 48.49 49.38 48.81 46.46 42.56 45.34 46.81 47.71 48.67 48.04 47.70 48.59 46.15 44.71 47.50 49.37 51.42 57.46 57.95
58.80 59.04 59.58 59.75 60.31 60.56 60.60 60.59 60.79 60.61 60.91 60.78 60.78 61.03 61.34 58.61 38.25 54.55 64.33 64.93 65.27 62.26 58.26 55.68 53.52 48.54 45.84 45.66 48.19 44.25 48.37 48.42 49.85 49.98 48.95 47.81 48.17 46.66 47.37 49.06 51.08 50.69 51.80 58.75 58.78
58.02 58.34 58.63 59.39 59.75 60.20 60.26 60.29 60.44 60.53 60.64 60.71 60.78 60.73 57.70 51.97 50.36 60.57 63.57 64.40 62.30 59.08 56.51 54.09 50.93 48.91 45.09 45.85 46.55 44.49 45.63 47.99 48.64 48.40 47.66 49.00 47.66 47.52 47.65 50.87 51.14 50.83 53.74 57.97 58.84
57.22 57.40 58.02 58.34 59.20 60.01 59.95 60.18 60.23 60.27 60.25 60.44 60.61 60.40 53.10 44.92 56.12 61.68 61.59 60.86 59.27 57.75 55.34 54.85 52.14 51.82 47.49 46.81 45.23 46.30 46.86 47.12 47.83 47.16 47.62 46.32 45.98 47.33 47.55 50.02 49.98 50.87 51.04 54.12 57.88
56.71 56.74 57.08 57.92 58.33 58.87 59.65 59.62 59.86 60.02 59.93 60.14 60.13 56.82 49.88 46.80 55.30 55.49 60.80 59.17 59.15 58.14 54.91 55.73 54.17 50.24 49.06 44.90 48.48 47.10 43.57 45.35 45.36 46.19 45.86 45.81 43.36 43.72 47.55 48.61 48.22 48.64 49.17 50.28 51.73
56.24 56.31 56.47 57.50 57.77 58.07 58.81 59.28 59.13 59.45 59.69 59.62 59.29 52.80 44.85 53.27 54.72 53.95 55.52 57.84 58.86 58.76 56.97 56.32 55.13 51.32 50.00 47.89 45.61 41.39 40.52 37.39 43.62 45.49 46.43 45.21 39.76 44.77 48.18 45.32 46.38 46.69 46.33 47.98 49.17
55.55 55.54 55.74 56.45 57.15 57.48 58.07 58.81 58.19 58.73 59.33 58.36 52.36 47.91 43.06 53.91 50.13 53.16 53.80 54.73 56.35 56.22 56.14 57.72 53.80 50.97 50.47 45.46 41.93 40.31 33.64 35.76 39.74 44.46 44.18 43.27 38.21 43.96 46.35 46.00 45.17 45.21 45.54 46.60 47.76
54.81 55.21 55.38 55.94 56.68 56.85 57.36 58.06 57.77 57.61 55.93 53.47 51.51 44.20 44.54 44.70 50.46 51.93 53.74 55.98 52.48 52.18 51.47 50.27 48.31 44.57 46.60 42.91 32.97 36.25 34.53 35.74 36.00 40.96 42.16 41.20 41.15 43.07 45.33 44.66 44.21 44.42 45.73 45.46 46.64
52.94 54.75 55.29 55.68 55.75 56.47 55.00 53.02 48.93 46.92 49.20 44.51 44.06 42.17 43.96 48.53 52.45 49.69 54.03 53.41 51.35 48.28 43.28 46.42 42.02 38.89 40.87 42.82 43.34 39.98 34.61 35.14 38.34 42.93 41.28 40.28 40.79 42.37 44.56 44.57 44.35 45.51 45.84 46.85 48.01
51.82 54.10 54.68 55.38 56.02 55.48 52.54 47.78 48.65 49.14 43.02 46.83 46.13 44.03 46.42 48.97 45.34 48.67 53.88 46.74 46.01 42.27 44.90 43.62 39.81 42.65 44.18 42.37 41.48 41.26 38.41 35.69 41.10 44.46 43.37 42.50 40.67 43.38 42.98 43.86 45.79 46.54 47.02 47.54 48.43
51.56 51.59 54.08 54.52 54.73 52.58 49.11 48.61 52.27 50.74 41.71 43.33 45.33 44.14 44.32 46.29 43.56 45.47 49.89 46.42 42.77 40.89 41.30 38.47 39.04 44.05 43.24 40.56 39.45 38.68 37.86 35.78 36.58 39.45 40.86 39.29 37.87 39.71 43.20 42.86 45.03 45.50 45.78 47.09 47.31
51.61 51.20 53.00 53.76 49.91 48.83 47.17 50.63 52.43 51.07 35.27 37.26 41.48 43.61 44.88 44.28 39.67 47.88 50.79 46.93 42.46 39.25 40.60 40.54 42.54 40.64 39.97 38.99 39.95 35.49 40.16 39.65 37.96 37.77 32.92 39.28 29.59 33.77 37.32 39.38 41.07 42.98 43.43 42.86 45.59
50.86 50.82 50.93 53.76 45.29 45.04 47.51 51.01 51.64 47.35 22.94 37.92 40.32 48.35 44.97 40.35 40.64 43.16 49.64 45.41 39.31 39.03 39.72 34.89 38.09 38.62 37.95 38.20 40.91 36.57 40.47 39.00 37.80 36.18 32.36 33.82 32.91 30.30 35.86 36.22 39.77 41.45 42.44 42.97 43.92
49.85 50.16 50.30 49.95 47.78 47.49 50.33 50.68 47.52 32.05 22.48 33.61 40.17 39.18 37.97 39.83 38.84 43.42 44.44 45.49 43.16 39.78 37.58 36.25 39.81 40.25 39.12 40.40 41.13 40.64 37.32 36.15 34.59 35.55 29.22 31.82 33.13 31.89 33.19 36.01 37.45 39.15 41.80 42.29 43.21
49.59 50.14 47.58 48.93 44.17 49.56 50.69 46.28 31.26 25.11 33.16 31.91 34.60 38.32 36.57 36.16 37.17 40.02 40.15 38.86 35.26 32.56 32.97 35.45 36.44 38.09 40.26 36.25 38.03 38.98 34.26 26.35 20.74 26.40 22.62 29.54 29.88 33.30 36.97 38.83 39.51 39.93 41.04 42.27 43.16
49.10 49.11 48.00 49.44 49.07 49.95 46.97 36.37 23.75 29.67 28.15 36.51 36.24 36.38 33.73 35.40 36.55 37.42 37.54 35.31 38.29 32.22 30.47 29.40 25.81 35.87 38.77 37.38 34.26 35.35 34.73 27.66 18.99 18.00 21.98 29.39 26.00 31.37 39.11 41.31 40.72 41.09 41.34 40.91 41.10
48.41 44.75 44.87 48.03 49.80 48.98 39.99 28.56 27.18 29.52 32.75 34.18 35.20 32.21 32.47 35.36 35.04 35.94 35.27 34.53 37.01 36.04 28.44 27.87 27.76 36.04 37.40 37.65 38.52 33.18 32.43 36.26 25.97 20.11 20.96 25.58 29.23 34.79 38.13 39.08 37.20 36.89 37.58 39.26 40.77
41.68 42.36 42.19 48.53 49.59 45.29 34.48 30.76 27.05 33.25 34.94 36.03 29.42 32.87 29.05 32.56 32.37 33.35 34.03 36.73 36.21 38.62 34.33 31.42 26.15 32.64 36.62 37.71 37.82 35.81 37.18 29.07 28.47 20.66 19.49 24.68 24.85 27.23 31.19 33.70 36.07 35.19 38.64 39.96 40.84
41.30 33.56 43.61 48.32 47.11 38.75 29.34 30.39 29.72 35.27 37.60 33.56 30.21 30.17 30.87 31.88 32.95 31.97 32.60 34.08 37.98 37.13 36.70 31.71 28.19 27.35 33.78 32.16 32.80 34.17 32.24 32.76 30.84 25.94 18.66 16.30 22.79 32.43 34.51 34.52 33.89 34.75 38.39 40.02 41.12
38.04 29.88 44.94 46.40 33.17 31.91 30.71 31.50 34.89 34.47 37.24 36.25 35.27 31.50 30.46 32.49 31.46 31.70 30.63 33.98 39.05 38.69 33.96 33.82 29.05 23.71 27.97 30.99 34.93 36.92 34.25 33.67 27.07 21.78 26.59 25.53 25.62 36.06 36.04 35.36 35.76 35.95 38.44 39.84 37.03
33.54 32.85 44.28 42.51 28.07 29.32 31.44 32.34 33.66 33.57 34.97 35.42 34.13 34.89 34.16 32.86 30.56 32.08 32.78 36.13 37.96 37.11 34.50 35.25 29.32 14.75 21.60 26.80 29.89 29.94 33.40 34.76 33.54 28.62 25.59 22.44 25.32 35.57 34.66 34.09 36.69 36.63 35.09 34.75 34.90
34.52 29.57 33.97 37.41 33.49 29.00 29.63 29.60 30.84 35.54 34.27 36.17 34.60 35.39 32.84 33.36 33.68 31.58 31.42 34.61 37.02 38.12 40.53 39.90 29.59 27.37 22.49 24.57 28.62 27.76 29.75 32.50 32.01 24.29 26.92 27.15 29.00 34.04 32.43 33.45 34.79 32.69 32.84 32.02 31.70
30.87 29.61 31.61 28.68 30.02 27.69 29.27 30.09 28.59 28.16 33.75 35.13 31.72 33.95 32.07 29.80 31.92 29.96 32.89 33.07 35.69 39.18 38.48 36.13 25.32 27.95 26.92 27.14 27.21 28.76 30.03 29.85 30.06 31.52 26.73 29.43 28.75 31.11 32.90 33.28 30.45 30.08 30.47 29.74 29.23
30.18 30.50 28.64 29.96 32.20 31.61 31.84 28.46 26.49 26.01 31.05 31.38 27.69 31.48 34.09 29.81 32.77 30.65 32.86 32.99 31.93 35.06 35.48 34.46 28.00 28.87 23.65 28.63 29.53 28.07 28.99 29.43 30.87 30.92 30.82 31.03 29.37 32.96 30.43 29.65 26.78 26.88 26.74 26.33 26.59
34.96 35.56 31.15 32.32 26.16 29.60 28.63 30.22 29.72 30.01 31.76 34.31 33.35 31.67 31.38 34.03 35.24 36.03 38.15 37.63 35.73 34.20 33.52 33.23 29.97 23.54 21.37 26.67 27.54 24.45 29.12 29.03 29.08 30.57 31.66 27.76 32.52 30.16 27.66 28.34 26.48 24.50 24.05 23.62 24.26
MSLP
1016.22 1016.57 1016.75 1016.94 1017.27 1017.51 1017.95 1018.24 1018.43 1018.64 1018.87 1019.15 1019.29 1019.35 1019.35 1019.31 1019.47 1019.42 1019.18 1018.54 1018.42 1018.18 1018.23 1018.17 1017.83 1017.85 1017.65 1018.09 1018.09 1018.38 1019.51 1019.93 1019.29 1018.80 1018.47 1017.83 1017.53 1017.26 1017.28 1017.26 1017.41 1017.71 1017.99 1018.05 1018.16
1015.87 1016.20 1016.26 1016.70 1016.85 1017.21 1017.73 1017.92 1018.17 1018.48 1018.66 1018.93 1019.22 1019.33 1019.37 1019.49 1019.51 1019.09 1018.36 1018.31 1018.31 1018.32 1018.51 1018.67 1018.56 1018.46 1018.69 1018.83 1018.80 1019.04 1019.87 1019.59 1018.91 1018.42 1018.18 1018.09 1017.85 1017.69 1017.64 1017.67 1017.72 1018.00 1018.12 1018.20 1018.36
1015.54 1015.70 1016.02 1016.34 1016.52 1016.96 1017.37 1017.72 1017.93 1018.35 1018.56 1018.73 1019.13 1019.30 1019.35 1019.47 1019.56 1018.29 1017.85 1018.05 1018.18 1018.46 1018.67 1018.74 1018.86 1019.02 1019.32 1019.29 1019.27 1019.39 1019.61 1019.27 1018.96 1018.49 1018.06 1018.05 1018.03 1017.89 1017.83 1017.96 1017.83 1018.06 1018.22 1018.65 1018.85
1014.92 1015.30 1015.78 1015.87 1016.21 1016.52 1017.03 1017.47 1017.78 1018.02 1018.43 1018.64 1018.88 1019.16 1019.25 1019.44 1019.18 1017.70 1017.59 1017.49 1017.81 1018.43 1018.75 1018.83 1019.21 1019.61 1019.88 1019.87 1019.58 1019.81 1019.29 1019.23 1018.97 1018.85 1018.65 1018.42 1018.23 1018.18 1018.07 1017.79 1017.48 1017.73 1018.15 1018.74 1019.08
1014.40 1014.83 1015.21 1015.38 1015.93 1016.17 1016.86 1017.12 1017.48 1017.89 1018.19 1018.55 1018.73 1019.04 1019.51 1019.33 1018.27 1017.49 1017.13 1017.23 1018.15 1018.60 1018.89 1019.23 1019.71 1019.99 1020.19 1020.08 1020.03 1019.94 1019.59 1019.21 1019.06 1018.93 1018.95 1018.75 1018.58 1018.54 1018.05 1017.80 1017.69 1017.90 1018.22 1018.70 1018.87
1013.95 1014.30 1014.79 1015.34 1015.64 1015.99 1016.40 1016.76 1017.16 1017.84 1017.99 1018.41 1018.71 1018.96 1019.38 1018.88 1017.69 1017.40 1017.56 1017.82 1018.20 1018.70 1019.13 1019.49 1019.78 1019.89 1020.15 1020.16 1020.29 1020.09 1019.84 1019.61 1019.24 1019.31 1019.16 1019.12 1018.86 1018.74 1017.82 1017.92 1018.09 1018.20 1018.35 1018.52 1018.65
1013.46 1014.01 1014.58 1014.88 1015.11 1015.67 1016.11 1016.40 1016.97 1017.56 1017.74 1018.26 1018.60 1019.07 1019.01 1018.18 1017.93 1017.74 1017.69 1018.16 1018.43 1018.67 1019.29 1019.57 1019.71 1019.93 1020.14 1020.40 1020.48 1020.49 1020.64 1020.21 1019.84 1019.52 1019.31 1019.17 1019.07 1018.75 1018.11 1018.34 1018.53 1018.70 1018.28 1018.20 1018.11
1013.01 1013.62 1014.05 1014.26 1014.75 1015.41 1015.83 1016.14 1016.62 1017.38 1017.68 1018.19 1018.66 1019.10 1018.62 1017.82 1017.73 1018.14 1018.07 1018.29 1018.66 1018.86 1019.15 1019.41 1019.73 1020.21 1020.38 1020.77 1021.02 1021.23 1021.37 1021.22 1020.34 1019.87 1019.47 1019.65 1018.74 1019.06 1018.60 1018.72 1018.76 1018.73 1018.59 1018.06 1017.72
1012.62 1013.11 1013.46 1013.85 1014.26 1015.10 1015.46 1015.87 1016.59 1017.31 1017.73 1018.31 1019.07 1019.15 1018.54 1017.73 1017.83 1017.87 1018.42 1018.45 1018.89 1019.32 1019.50 1019.59 1019.70 1020.21 1020.74 1020.99 1021.56 1021.72 1021.71 1021.77 1021.27 1020.42 1020.20 1020.02 1019.34 1019.12 1019.03 1019.03 1019.04 1018.79 1018.70 1018.30 1017.59
1012.19 1012.58 1013.03 1013.55 1014.02 1014.61 1015.17 1015.98 1016.58 1017.37 1018.06 1018.67 1019.19 1019.41 1018.48 1017.77 1017.58 1017.68 1018.03 1018.43 1018.93 1019.51 1019.88 1020.11 1020.24 1020.45 1020.60 1020.91 1020.70 1021.38 1021.72 1021.71 1021.49 1020.96 1020.64 1020.38 1019.53 1019.73 1019.37 1019.37 1019.28 1018.76 1018.29 1018.09 1017.64
1011.91 1012.06 1012.55 1013.12 1013.55 1014.19 1015.31 1016.37 1017.15 1017.31 1017.37 1017.23 1017.58 1017.44 1017.25 1017.35 1017.34 1017.90 1018.05 1018.54 1018.99 1019.73 1020.03 1020.34 1020.57 1019.93 1020.42 1020.75 1020.96 1021.20 1021.74 1021.90 1021.63 1021.26 1021.23 1020.81 1020.06 1019.83 1019.44 1019.13 1018.88 1018.35 1017.85 1017.32 1016.72
1011.54 1011.61 1012.14 1012.75 1013.32 1014.00 1014.94 1015.15 1014.79 1014.75 1016.45 1017.09 1017.08 1017.19 1017.25 1017.18 1017.75 1017.84 1017.96 1018.79 1019.21 1019.58 1020.01 1020.77 1019.73 1020.15 1020.33 1020.84 1021.16 1021.42 1021.93 1022.17 1021.94 1021.44 1021.43 1020.96 1019.39 1019.35 1019.28 1018.79 1018.30 1017.86 1017.29 1016.59 1015.93
1011.11 1011.51 1011.74 1012.35 1013.04 1013.82 1014.24 1014.48 1014.55 1014.48 1015.98 1016.80 1017.07 1017.15 1017.30 1017.44 1017.52 1017.54 1017.85 1018.42 1019.05 1019.67 1020.00 1019.91 1019.74 1020.01 1020.38 1021.00 1021.54 1021.72 1021.91 1022.34 1022.15 1021.74 1021.57 1021.28 1018.71 1019.19 1018.30 1017.92 1017.70 1017.36 1016.73 1016.11 1015.67
1010.26 1011.12 1011.40 1012.08 1013.47 1013.26 1013.78 1014.50 1014.88 1015.02 1015.98 1015.95 1016.41 1016.62 1016.94 1017.46 1017.62 1017.25 1017.40 1018.06 1019.11 1019.43 1020.03 1020.24 1019.85 1020.35 1020.58 1020.77 1021.29 1021.44 1021.41 1022.14 1022.32 1022.53 1022.02 1021.36 1018.57 1018.45 1018.21 1017.54 1017.22 1016.81 1016.16 1016.09 1015.46
1009.72 1010.22 1011.05 1011.65 1011.90 1012.74 1012.77 1014.30 1014.98 1015.38 1015.20 1014.90 1015.39 1015.51 1016.00 1017.07 1016.89 1017.21 1017.20 1018.11 1018.67 1019.14 1019.95 1019.67 1019.80 1020.16 1020.33 1020.27 1021.05 1021.29 1021.47 1022.03 1022.44 1022.73 1022.71 1021.49 1021.44 1017.46 1017.69 1017.32 1016.81 1016.12 1016.02 1015.41 1015.23
1009.09 1009.89 1010.41 1010.99 1011.66 1011.61 1012.78 1014.12 1015.15 1015.23 1013.33 1014.41 1014.41 1014.93 1016.24 1016.59 1016.84 1017.34 1017.70 1018.24 1018.94 1019.48 1019.65 1019.72 1019.70 1019.78 1019.60 1020.17 1020.48 1021.02 1021.71 1022.35 1022.73 1023.14 1022.62 1020.87 1021.63 1016.65 1017.14 1016.47 1016.28 1016.03 1015.82 1015.62 1015.37
1008.23 1008.91 1009.88 1010.43 1010.01 1011.33 1012.39 1013.77 1013.62 1012.23 1013.97 1013.61 1013.61 1014.26 1014.75 1015.83 1016.76 1016.82 1017.59 1018.12 1018.41 1019.39 1019.62 1019.85 1019.74 1019.57 1019.40 1020.14 1020.61 1020.98 1021.99 1022.79 1023.19 1023.16 1021.79 1020.87 1021.03 1017.64 1016.22 1016.18 1016.02 1016.11 1016.09 1015.82 1015.55
1007.57 1008.21 1009.13 1009.81 1009.70 1010.96 1011.91 1012.53 1011.04 1011.58 1012.63 1013.07 1013.23 1014.34 1014.53 1015.21 1016.16 1016.55 1017.08 1017.51 1017.88 1018.05 1018.60 1019.28 1019.64 1019.26 1019.01 1018.98 1020.05 1020.95 1021.56 1021.92 1022.26 1022.72 1022.03 1021.35 1019.82 1017.15 1015.78 1015.34 1015.60 1015.74 1015.87 1015.91 1015.88
1007.11 1008.00 1008.05 1008.10 1008.34 1009.74 1011.04 1010.14 1009.88 1010.72 1011.54 1012.46 1013.35 1013.87 1014.38 1014.75 1015.14 1015.96 1016.26 1016.35 1016.74 1017.29 1017.82 1018.66 1018.64 1018.13 1018.28 1018.55 1019.21 1020.30 1020.62 1020.72 1022.04 1022.52 1022.48 1021.08 1019.11 1016.95 1015.77 1015.12 1015.42 1015.69 1015.90 1016.14 1016.00
1006.40 1007.19 1007.06 1007.58 1007.49 1009.27 1010.42 1010.18 1010.46 1010.24 1011.08 1011.81 1012.50 1013.06 1013.47 1014.11 1014.83 1015.46 1015.82 1015.50 1016.09 1016.71 1017.32 1017.77 1018.39 1017.94 1018.32 1018.48 1018.65 1018.89 1019.60 1021.01 1021.79 1022.11 1021.73 1020.33 1019.17 1017.02 1015.67 1015.58 1015.63 1016.02 1016.32 1016.28 1016.06
1006.43 1007.08 1005.50 1006.05 1007.88 1008.01 1008.17 1009.71 1010.51 1009.69 1010.27 1011.58 1011.95 1012.50 1013.02 1013.36 1013.97 1014.48 1014.80 1014.92 1015.34 1016.17 1017.27 1017.48 1017.94 1018.76 1018.58 1018.09 1017.83 1018.71 1019.02 1019.45 1020.24 1021.04 1020.71 1020.20 1018.02 1015.61 1015.38 1015.58 1015.88 1016.33 1016.81 1016.85 1016.81
1005.59 1005.84 1005.04 1005.55 1007.51 1008.43 1008.72 1009.51 1010.50 1010.29 1010.30 1011.27 1011.65 1012.07 1012.38 1012.67 1013.29 1014.11 1013.94 1013.75 1014.31 1015.36 1016.39 1017.46 1018.04 1018.63 1018.12 1017.67 1017.48 1017.53 1017.55 1018.73 1019.55 1020.14 1020.09 1019.25 1016.88 1015.44 1015.52 1015.73 1016.24 1016.97 1017.24 1017.56 1018.13
1004.77 1005.38 1005.47 1006.05 1007.17 1007.82 1008.73 1009.46 1010.09 1010.63 1010.65 1010.95 1011.52 1011.95 1011.95 1012.29 1013.37 1013.48 1013.47 1013.75 1014.02 1014.92 1015.30 1016.42 1017.30 1018.29 1018.38 1017.99 1017.63 1017.44 1017.46 1017.83 1018.71 1019.14 1018.82 1019.03 1016.38 1014.92 1015.55 1016.06 1016.45 1017.30 1018.19 1018.59 1018.93
1004.92 1005.74 1006.12 1007.08 1007.23 1007.70 1008.84 1009.71 1010.48 1010.45 1010.55 1011.01 1011.78 1012.27 1012.02 1012.25 1012.37 1012.72 1013.42 1013.58 1013.71 1014.45 1015.13 1015.85 1016.34 1016.58 1016.41 1016.07 1016.36 1017.05 1016.94 1017.42 1018.22 1018.92 1017.39 1017.49 1016.03 1014.05 1016.21 1016.77 1017.53 1018.50 1019.13 1019.56 1019.91
1005.66 1006.40 1006.82 1006.98 1008.40 1008.92 1008.83 1009.67 1010.61 1010.89 1010.64 1011.21 1012.06 1012.00 1011.95 1012.22 1012.51 1012.56 1013.06 1013.56 1013.74 1013.90 1014.84 1015.57 1015.85 1016.45 1016.44 1016.30 1016.15 1016.02 1016.24 1016.73 1017.25 1016.35 1017.48 1015.98 1016.71 1016.18 1016.99 1017.85 1019.01 1019.71 1020.24 1020.69 1020.98
1006.12 1006.53 1007.19 1007.94 1008.77 1009.30 1009.48 1010.22 1010.48 1010.74 1010.41 1011.16 1011.99 1011.87 1012.05 1011.67 1011.30 1011.41 1012.10 1012.46 1012.79 1013.89 1014.11 1014.90 1015.35 1016.13 1016.67 1016.65 1016.44 1016.27 1015.96 1015.87 1016.17 1016.45 1016.79 1016.76 1015.99 1016.84 1018.04 1018.93 1020.01 1020.83 1021.41 1021.77 1022.08
1006.14 1006.31 1006.63 1008.46 1009.11 1009.64 1009.81 1009.75 1009.97 1010.10 1010.50 1010.14 1010.21 1011.15 1011.48 1010.52 1010.75 1010.89 1011.18 1011.53 1011.82 1012.62 1013.70 1014.52 1015.40 1016.62 1017.26 1017.25 1017.23 1016.90 1014.51 1015.49 1015.71 1015.63 1016.13 1016.73 1015.73 1017.62 1018.98 1019.90 1020.99 1021.86 1022.41 1022.98 1023.05
Wind_Speed
15 17 16 15 14 13 12 11 10 9 7 5 3 2 2 1 2 2 4 4 2 6 6 7 5 7 4 5 5 3 5 2 3 3 1 5 5 3 1 1 2 2 2 2 2
14 13 15 16 15 14 13 12 11 10 8 6 5 4 2 1 2 7 6 7 4 4 3 4 5 7 4 4 4 4 4 8 3 3 1 1 3 2 3 5 2 1 1 2 7
16 14 13 15 16 15 15 13 12 10 10 8 7 6 5 4 2 7 12 13 10 4 2 1 2 2 2 2 1 1 4 4 3 2 1 3 4 2 2 2 3 1 1 2 3
19 17 15 14 15 17 16 14 12 11 10 9 8 7 6 3 7 1 6 17 14 5 2 2 2 1 2 3 1 1 5 3 1 2 1 3 1 2 3 7 5 4 1 5 7
18 18 16 13 14 16 18 16 14 12 11 9 9 8 4 5 7 3 8 8 7 5 6 5 4 4 5 3 1 3 3 4 1 0 2 1 5 5 7 9 6 5 4 8 8
20 18 17 16 14 14 17 17 15 14 12 11 9 6 3 10 5 5 8 6 7 5 3 4 5 5 3 3 3 1 3 5 4 1 3 4 5 6 3 3 6 5 7 7 9
22 22 20 17 14 13 14 17 16 14 13 12 9 4 4 9 5 6 6 5 5 6 6 4 3 3 2 1 0 1 3 6 3 2 3 1 7 8 7 6 7 9 10 8 10
20 21 19 17 16 14 13 16 16 14 12 11 9 3 6 5 9 5 2 3 4 3 3 6 5 4 3 3 4 3 3 3 4 3 5 4 13 7 10 4 10 10 9 11 8
21 20 18 16 15 15 14 15 16 15 13 9 4 4 5 2 5 8 3 6 6 3 2 3 5 2 3 5 7 4 3 4 5 3 4 7 1 4 6 7 10 9 8 9 12
20 20 19 19 17 16 13 13 14 13 9 5 2 3 4 6 5 6 6 6 5 6 4 3 3 4 5 8 11 9 6 0 5 3 3 10 15 6 8 5 9 10 11 8 9
14 20 19 19 19 19 13 5 7 8 10 6 10 3 3 1 4 4 6 5 5 4 6 4 5 12 12 9 8 3 3 5 3 6 3 7 12 10 7 9 12 13 12 13 13
12 19 20 20 20 20 9 7 11 4 8 4 7 2 1 5 4 5 11 7 7 11 6 3 16 8 6 6 7 7 8 4 5 4 3 12 20 13 6 9 16 18 16 16 15
17 10 20 20 19 14 15 21 5 5 5 9 3 10 3 3 5 12 15 6 5 15 13 15 4 10 8 5 7 6 11 5 8 0 4 6 23 14 14 6 10 12 12 14 14
22 18 19 21 13 11 15 12 4 2 5 8 10 7 6 4 4 6 10 10 5 16 7 9 10 7 6 12 9 13 6 7 5 3 8 7 13 3 5 10 7 11 12 8 13
23 21 15 25 6 16 11 10 7 3 13 14 11 7 11 9 7 7 3 4 9 8 8 7 11 13 13 7 9 4 6 8 6 5 2 11 7 1 2 7 14 9 10 10 9
25 22 23 15 8 12 14 14 5 9 13 13 10 14 12 8 4 4 5 6 3 5 1 5 2 8 7 5 11 5 5 2 3 3 9 10 8 21 6 7 6 3 9 8 10
26 23 13 16 15 15 16 11 13 17 10 9 11 15 23 13 9 9 15 14 11 10 13 5 7 2 3 5 2 5 5 2 2 7 9 3 8 19 6 9 10 8 10 10 8
27 22 20 11 14 18 14 15 22 9 7 5 12 18 20 13 16 11 16 16 15 2 7 12 5 13 8 11 6 9 11 8 6 5 5 3 8 10 11 9 4 4 6 5 7
25 12 13 11 21 16 14 20 17 13 9 13 13 13 13 12 12 15 16 23 20 14 8 9 8 3 5 6 15 7 11 13 3 1 1 5 8 11 11 15 3 4 4 6 7
6 9 17 18 20 16 15 20 7 8 11 10 12 14 18 18 13 19 18 17 14 19 3 7 1 6 8 4 7 8 9 3 5 6 10 5 5 10 6 2 5 5 8 9 7
6 2 8 21 12 9 17 8 3 5 11 11 7 7 9 13 15 16 13 6 21 16 8 6 3 1 7 10 16 8 8 4 5 5 5 2 8 9 11 5 3 2 5 6 8
3 4 14 17 10 4 9 12 4 5 4 5 4 4 10 16 17 16 22 17 17 18 20 6 4 5 9 3 6 18 17 15 7 6 3 3 12 7 7 5 4 1 3 7 8
3 2 10 9 6 8 4 6 4 6 5 6 4 0 5 15 11 12 13 9 11 16 16 11 6 3 7 5 1 7 12 11 10 3 14 4 12 1 7 4 6 8 8 6 9
3 3 3 5 2 5 8 5 6 2 4 7 6 4 4 8 7 15 7 7 12 15 12 17 4 13 15 4 8 7 7 13 12 5 15 16 20 24 3 4 7 6 6 7 9
3 1 1 6 4 4 5 9 5 4 3 5 2 3 4 7 13 5 9 5 7 14 14 11 8 6 4 4 5 7 12 12 17 25 11 18 17 3 4 4 5 6 7 8 9
5 4 3 4 5 10 6 9 10 3 9 11 4 10 9 6 12 14 14 9 10 11 15 7 6 10 4 6 5 4 8 11 15 9 15 14 21 6 5 7 6 7 7 8 8
0 3 5 7 4 4 4 5 10 6 2 9 17 9 11 18 5 5 12 7 8 12 12 10 5 3 6 1 5 8 20 13 7 8 13 15 15 6 4 5 5 5 7 8 10
Wind_Direction
223 223 217 211 207 205 208 205 194 193 199 223 219 273 270 164 176 251 253 218 248 312 330 317 10 349 23 5 1 107 65 160 221 178 160 322 28 2 242 347 47 52 146 263 143
218 217 217 218 212 205 207 201 197 195 191 203 215 221 216 268 291 242 221 274 282 302 358 5 353 2 13 3 359 79 117 211 211 174 118 47 25 315 51 342 310 327 345 10 134
221 216 212 218 214 208 204 201 192 191 191 191 203 205 183 154 9 250 200 225 237 236 258 65 350 25 31 347 324 149 193 207 218 222 347 358 348 326 97 311 238 220 276 174 165
214 217 216 213 216 209 206 199 193 185 193 189 195 205 194 179 212 195 305 220 207 177 195 117 71 96 162 207 252 189 268 221 150 69 360 300 316 317 212 232 194 221 188 170 199
217 210 210 210 211 210 205 195 192 188 186 190 192 201 140 209 235 344 358 197 131 157 174 159 147 159 188 202 190 197 255 291 45 99 224 256 257 240 234 260 266 286 173 205 216
215 213 204 203 206 207 205 196 188 188 184 190 194 164 207 214 245 101 85 108 145 136 150 132 185 193 206 228 165 275 307 306 327 276 261 233 248 140 266 227 262 289 272 234 221
213 205 202 196 200 207 203 200 191 186 182 188 185 142 231 225 106 33 131 163 164 156 156 192 163 142 166 333 92 113 296 309 280 260 274 245 279 230 265 298 274 278 280 257 241
211 203 202 192 195 205 204 199 191 183 182 181 167 92 235 233 252 333 314 119 79 65 155 152 152 123 165 108 25 162 53 234 283 257 256 160 258 283 280 285 286 295 294 297 270
218 205 200 200 192 199 202 201 191 183 177 150 105 153 221 347 179 231 205 166 133 74 77 91 110 199 119 171 229 207 214 199 290 267 282 189 273 288 349 339 303 298 289 287 299
237 208 199 197 194 191 194 195 193 167 137 71 37 102 281 215 183 180 183 146 129 121 103 141 155 190 201 200 216 220 231 266 190 295 272 281 271 279 291 290 280 286 292 273 261
269 212 200 196 197 190 182 159 180 190 189 177 164 220 145 199 139 158 149 111 100 100 168 168 193 210 206 218 229 131 184 209 216 238 256 256 276 277 276 301 285 283 279 276 267
238 227 201 194 197 193 167 202 205 148 166 202 182 165 359 160 133 195 149 145 180 194 143 175 223 202 188 208 217 230 237 218 245 211 235 273 274 274 243 248 269 276 279 273 275
219 260 204 197 200 190 190 199 179 143 146 183 168 209 164 136 190 192 176 134 171 199 192 211 243 175 182 176 193 215 227 194 226 30 266 289 277 265 265 243 262 266 251 265 263
214 209 224 197 187 190 200 184 202 156 207 168 192 214 153 140 259 189 186 163 162 203 174 230 234 178 187 216 178 238 194 190 215 193 254 159 286 159 259 273 250 264 283 271 271
222 205 225 205 144 194 173 143 164 89 221 162 167 157 157 173 143 213 160 91 168 160 159 211 178 185 208 188 178 219 157 174 181 207 284 240 271 201 193 277 272 273 267 278 282
219 203 201 230 199 193 143 148 131 199 208 172 152 162 152 189 173 92 119 67 110 153 15 230 210 187 192 156 182 136 99 58 99 198 245 242 202 280 250 228 292 280 288 314 310
214 210 195 209 190 154 147 166 202 214 139 174 163 171 177 171 167 166 175 181 175 176 209 161 211 220 151 119 71 167 114 273 312 212 237 149 188 246 296 278 246 275 303 309 326
209 214 214 230 163 157 161 194 213 175 175 178 153 182 185 151 193 173 168 189 208 143 169 206 228 181 185 196 161 204 198 215 202 209 237 140 226 252 247 268 313 246 268 318 347
204 206 210 209 159 163 171 212 206 165 150 164 148 174 189 184 172 181 189 199 201 193 169 182 235 137 182 155 165 188 200 218 310 135 24 227 279 286 269 277 294 51 352 3 353
173 209 201 179 149 167 189 200 181 147 134 161 165 182 184 180 174 185 188 200 205 197 238 201 187 192 191 126 213 171 153 137 175 233 241 240 250 243 272 87 133 2 5 351 346
160 178 201 148 138 201 191 170 202 156 129 157 164 151 180 175 182 187 186 196 191 183 174 153 127 43 122 204 191 189 206 195 135 166 184 227 250 210 251 214 177 108 340 335 354
148 197 155 143 157 182 189 162 150 147 106 136 109 106 181 178 183 186 201 198 190 168 197 177 154 192 207 214 203 217 221 208 214 218 236 283 267 138 152 148 126 296 352 37 45
93 90 146 142 169 159 122 103 120 150 159 130 140 234 182 177 184 194 205 169 171 175 177 171 207 73 334 343 58 193 213 219 226 71 228 173 259 134 120 28 11 39 63 48 39
90 139 99 158 35 98 145 112 126 20 107 112 149 179 140 158 200 195 201 189 171 185 167 169 188 205 218 212 141 193 186 193 198 197 242 225 256 259 289 305 34 67 62 52 37
37 348 214 147 111 133 107 132 130 150 122 114 92 169 169 159 199 186 175 144 189 191 188 170 221 202 248 184 171 194 201 184 203 224 194 245 226 167 165 136 106 78 56 41 28
137 129 16 86 123 110 155 179 159 213 149 173 175 194 190 176 197 192 172 186 177 198 185 187 238 181 241 196 196 224 218 205 216 223 233 250 257 122 121 101 84 69 50 31 11
156 55 100 129 85 125 197 140 204 126 307 195 193 165 193 219 204 238 191 184 165 166 193 189 160 109 244 169 115 270 234 203 202 197 200 224 241 156 121 107 120 89 57 25 1